timestamp,surface_pressure_avg,surface_temp_avg,battery_voltage,lat,long
2020-03-10 00:09:01+00:00,375.3612,0.28,12.97,47.84626,-54.09684
2020-03-10 00:19:01+00:00,373.82300000000004,0.3,12.65,47.84626,-54.09684
2020-03-10 00:29:01+00:00,372.2112,0.2,12.65,47.84626,-54.09684
2020-03-10 00:39:01+00:00,368.2113,0.2,12.65,47.84626,-54.09684
2020-03-10 00:49:01+00:00,365.3729,0.2,12.65,47.84626,-54.09684
2020-03-10 00:59:01+00:00,363.9579,0.2,12.65,47.84626,-54.09684
2020-03-10 01:09:01+00:00,359.0063,0.2,12.65,47.84626,-54.09684
2020-03-10 01:19:01+00:00,350.69800000000015,0.2,12.57,47.84626,-54.09684
2020-03-10 01:29:01+00:00,345.1431,0.2,12.57,47.84626,-54.09684
2020-03-10 01:39:01+00:00,340.1497,0.2,12.57,47.84626,-54.09684
2020-03-10 01:49:01+00:00,328.8813,0.29,12.57,47.84626,-54.09684
2020-03-10 01:59:01+00:00,318.1263,0.3,12.57,47.84626,-54.09684
2020-03-10 02:09:01+00:00,314.5397,0.3,12.57,47.84626,-54.09684
2020-03-10 02:19:01+00:00,306.5064,0.3,12.57,47.84626,-54.09684
2020-03-10 02:29:01+00:00,291.6763,0.3,12.57,47.84626,-54.09684
2020-03-10 02:39:01+00:00,284.4797,0.3,12.57,47.84626,-54.09684
2020-03-10 02:49:01+00:00,279.0381,0.3,12.57,47.84626,-54.09684
2020-03-10 02:59:01+00:00,267.9081,0.3,12.57,47.84626,-54.09684
2020-03-10 03:09:01+00:00,253.4264,0.3,12.57,47.84626,-54.09684
2020-03-10 03:19:01+00:00,243.6347,0.3,12.49,47.84626,-54.09684
2020-03-10 03:29:01+00:00,234.9031,0.3,12.49,47.84626,-54.09684
2020-03-10 03:39:01+00:00,226.7264,0.3,12.49,47.84626,-54.09684
2020-03-10 03:49:01+00:00,220.5531,0.3,12.49,47.84626,-54.09684
2020-03-10 03:59:01+00:00,212.3031,0.33,12.49,47.84626,-54.09684
2020-03-10 04:09:01+00:00,201.4648,0.35,12.49,47.84626,-54.09684
2020-03-10 04:19:01+00:00,195.2031,0.3,12.49,47.84626,-54.09684
2020-03-10 04:29:01+00:00,190.1565,0.1,12.49,47.84626,-54.09684
2020-03-10 04:39:01+00:00,180.6314,0.09,12.49,47.84626,-54.09684
2020-03-10 04:49:01+00:00,173.1898,0.0,12.49,47.84626,-54.09684
2020-03-10 04:59:01+00:00,172.5899,0.0,12.49,47.84626,-54.09684
2020-03-10 05:09:01+00:00,170.7748,0.0,12.49,47.84626,-54.09684
2020-03-10 05:19:01+00:00,162.2865,-0.0,12.49,47.84626,-54.09684
2020-03-10 05:29:01+00:00,156.7182,-0.1,12.49,47.84626,-54.09684
2020-03-10 05:39:01+00:00,159.7082,-0.07,12.49,47.84626,-54.09684
2020-03-10 05:49:01+00:00,160.7915,0.0,12.49,47.84626,-54.09684
2020-03-10 05:59:01+00:00,156.1565,0.0,12.49,47.84626,-54.09684
2020-03-10 06:09:01+00:00,157.0415,0.0,12.49,47.84626,-54.09684
2020-03-10 06:19:01+00:00,164.9331,0.0,12.41,47.84626,-54.09684
2020-03-10 06:29:01+00:00,166.6515,0.06,12.41,47.84626,-54.09684
2020-03-10 06:39:01+00:00,167.0482,0.1,12.41,47.84626,-54.09684
2020-03-10 06:49:01+00:00,174.9932,0.0,12.41,47.84626,-54.09684
2020-03-10 06:59:01+00:00,179.5948,-0.1,12.41,47.84626,-54.09684
2020-03-10 07:09:01+00:00,183.2481,-0.12,12.41,47.84626,-54.09684
2020-03-10 07:19:01+00:00,189.7998,-0.2,12.41,47.84626,-54.09684
2020-03-10 07:29:01+00:00,195.4348,-0.2,12.41,47.84626,-54.09684
2020-03-10 07:39:01+00:00,200.0681,-0.3,12.41,47.84626,-54.09684
2020-03-10 07:49:01+00:00,203.8881,-0.3,12.41,47.84626,-54.09684
2020-03-10 07:59:01+00:00,210.2215,-0.21,12.41,47.84626,-54.09684
2020-03-10 08:09:01+00:00,214.4747,-0.11,12.41,47.84626,-54.09684
2020-03-10 08:19:01+00:00,218.0848,-0.05,12.41,47.84626,-54.09684
2020-03-10 08:29:01+00:00,226.5098,-0.0,12.41,47.84626,-54.09684
2020-03-10 08:39:01+00:00,234.07299999999998,0.0,12.41,47.84626,-54.09684
2020-03-10 08:49:01+00:00,236.4564,0.0,12.41,47.84626,-54.09684
2020-03-10 08:59:01+00:00,242.3498,0.0,12.41,47.84626,-54.09684
2020-03-10 09:09:01+00:00,253.3314,0.0,12.41,47.84626,-54.09684
2020-03-10 09:19:01+00:00,261.8497,0.0,12.41,47.84626,-54.09684
2020-03-10 09:29:01+00:00,266.9847,0.0,12.41,47.84626,-54.09684
2020-03-10 09:39:01+00:00,274.408,0.0,12.41,47.84626,-54.09684
2020-03-10 09:49:01+00:00,283.088,0.05,12.41,47.84626,-54.09684
2020-03-10 09:59:01+00:00,292.033,0.08,12.41,47.84626,-54.09684
2020-03-10 10:09:01+00:00,301.443,0.1,12.41,47.84626,-54.09684
2020-03-10 10:19:01+00:00,311.8863,0.1,12.41,47.84626,-54.09684
2020-03-10 10:29:01+00:00,323.4213,0.1,12.41,47.84626,-54.09684
2020-03-10 10:39:01+00:00,335.1547,0.1,12.41,47.84626,-54.09684
2020-03-10 10:49:01+00:00,339.4430000000001,0.1,12.41,47.84626,-54.09684
2020-03-10 10:59:01+00:00,343.6663,0.1,12.41,47.84626,-54.09684
2020-03-10 11:09:01+00:00,350.9647,0.1,12.41,47.84626,-54.09684
2020-03-10 11:19:01+00:00,360.1929,0.1,14.56,47.84626,-54.09684
2020-03-10 11:29:01+00:00,361.6996,0.1,14.56,47.84626,-54.09684
2020-03-10 11:39:01+00:00,365.5145,0.1,14.56,47.84626,-54.09684
2020-03-10 11:49:01+00:00,371.5796,0.1,14.56,47.84626,-54.09684
2020-03-10 11:59:01+00:00,376.7513,0.1,14.56,47.84626,-54.09684
2020-03-10 12:09:01+00:00,378.1896,0.1,14.56,47.84626,-54.09684
2020-03-10 12:19:01+00:00,377.8779,0.08,14.96,47.84626,-54.09684
2020-03-10 12:29:01+00:00,381.8695,-0.0,14.96,47.84626,-54.09684
2020-03-10 12:39:01+00:00,381.5662,-0.05,14.96,47.84626,-54.09684
2020-03-10 12:49:01+00:00,379.2796,-0.08,14.96,47.84626,-54.09684
2020-03-10 12:59:01+00:00,375.2445,-0.1,14.96,47.84626,-54.09684
2020-03-10 13:09:01+00:00,371.5563,-0.09,14.96,47.84626,-54.09684
2020-03-10 13:19:01+00:00,369.1879,0.0,14.96,47.84626,-54.09684
2020-03-10 13:29:01+00:00,365.8513,0.1,14.96,47.84626,-54.09684
2020-03-10 13:39:01+00:00,361.5179,0.19,14.96,47.84626,-54.09684
2020-03-10 13:49:01+00:00,358.4129,0.2,14.96,47.84626,-54.09684
2020-03-10 13:59:01+00:00,353.4296,0.26,14.96,47.84626,-54.09684
2020-03-10 14:09:01+00:00,345.4679,0.27,14.96,47.84626,-54.09684
2020-03-10 14:19:01+00:00,340.213,0.25,14.96,47.84626,-54.09684
2020-03-10 14:29:01+00:00,334.5746,0.23,14.96,47.84626,-54.09684
2020-03-10 14:39:01+00:00,324.58799999999997,0.23,14.96,47.84626,-54.09684
2020-03-10 14:49:01+00:00,309.058,0.26,14.96,47.84626,-54.09684
2020-03-10 14:59:01+00:00,297.5514,0.29,14.96,47.84626,-54.09684
2020-03-10 15:09:01+00:00,288.9097,0.28,14.96,47.84626,-54.09684
2020-03-10 15:19:01+00:00,277.8448,0.29,14.88,47.84626,-54.09684
2020-03-10 15:29:01+00:00,265.4797,0.3,14.88,47.84626,-54.09684
2020-03-10 15:39:01+00:00,253.6547,0.3,14.88,47.84626,-54.09684
2020-03-10 15:49:01+00:00,240.9597,0.3,14.88,47.84626,-54.09684
2020-03-10 15:59:01+00:00,230.4231,0.3,14.88,47.84626,-54.09684
2020-03-10 16:09:01+00:00,220.5931,0.3,14.88,47.84626,-54.09684
2020-03-10 16:19:01+00:00,211.6798,0.3,14.72,47.84626,-54.09684
2020-03-10 16:29:01+00:00,202.4748,0.3,14.72,47.84626,-54.09684
2020-03-10 16:39:01+00:00,194.6614,0.3,14.72,47.84626,-54.09684
2020-03-10 16:49:01+00:00,192.4398,0.3,14.72,47.84626,-54.09684
2020-03-10 16:59:01+00:00,184.4364,0.3,14.72,47.84626,-54.09684
2020-03-10 17:09:01+00:00,175.3898,0.3,14.72,47.84626,-54.09684
2020-03-10 17:19:01+00:00,169.9182,0.3,14.56,47.84626,-54.09684
2020-03-10 17:29:01+00:00,161.1498,0.3,14.56,47.84626,-54.09684
2020-03-10 17:39:01+00:00,153.1682,0.3,14.56,47.84626,-54.09684
2020-03-10 17:49:01+00:00,146.8315,0.3,14.56,47.84626,-54.09684
2020-03-10 17:59:01+00:00,147.9965,0.32,14.56,47.84626,-54.09684
2020-03-10 18:09:01+00:00,150.0699,0.35,14.56,47.84626,-54.09684
2020-03-10 18:19:01+00:00,148.6031,0.38,14.32,47.84626,-54.09684
2020-03-10 18:29:01+00:00,152.3815,0.4,14.32,47.84626,-54.09684
2020-03-10 18:39:01+00:00,158.3698,0.4,14.32,47.84626,-54.09684
2020-03-10 18:49:01+00:00,156.0565,0.4,14.32,47.84626,-54.09684
2020-03-10 18:59:01+00:00,154.3199,0.4,14.32,47.84626,-54.09684
2020-03-10 19:09:01+00:00,159.6648,0.4,14.32,47.84626,-54.09684
2020-03-10 19:19:01+00:00,163.2765,0.4,14.08,47.84626,-54.09684
2020-03-10 19:29:01+00:00,164.8382,0.4,14.08,47.84626,-54.09684
2020-03-10 19:39:01+00:00,167.9232,0.4,14.08,47.84626,-54.09684
2020-03-10 19:49:01+00:00,174.0681,0.4,14.08,47.84626,-54.09684
2020-03-10 19:59:01+00:00,181.3065,0.41,14.08,47.84626,-54.09684
2020-03-10 20:09:01+00:00,185.1365,0.46,14.08,47.84626,-54.09684
2020-03-10 20:19:01+00:00,192.3031,0.48,14.0,47.84626,-54.09684
2020-03-10 20:29:01+00:00,201.5448,0.48,14.0,47.84626,-54.09684
2020-03-10 20:39:01+00:00,204.7747,0.48,14.0,47.84626,-54.09684
2020-03-10 20:49:01+00:00,211.8781,0.49,14.0,47.84626,-54.09684
2020-03-10 20:59:01+00:00,221.5581,0.46,14.0,47.84626,-54.09684
2020-03-10 21:09:01+00:00,228.0798,0.45,14.0,47.84626,-54.09684
2020-03-10 21:19:01+00:00,236.0348,0.41,13.68,47.84626,-54.09684
2020-03-10 21:29:01+00:00,249.1647,0.4,13.68,47.84626,-54.09684
2020-03-10 21:39:01+00:00,261.5614,0.4,13.68,47.84626,-54.09684
2020-03-10 21:49:01+00:00,266.8781,0.4,13.68,47.84626,-54.09684
2020-03-10 21:59:01+00:00,275.5714,0.4,13.68,47.84626,-54.09684
2020-03-10 22:09:01+00:00,291.1831,0.4,13.68,47.84626,-54.09684
2020-03-10 22:19:01+00:00,302.1697,0.37,13.21,47.84626,-54.09684
2020-03-10 22:29:01+00:00,307.7047,0.2,13.21,47.84626,-54.09684
2020-03-10 22:39:01+00:00,317.908,0.09,13.21,47.84626,-54.09684
2020-03-10 22:49:01+00:00,335.6447,0.1,13.21,47.84626,-54.09684
2020-03-10 22:59:01+00:00,345.2013,0.21,13.21,47.84626,-54.09684
2020-03-10 23:09:01+00:00,351.1198,0.3,13.21,47.84626,-54.09684
2020-03-10 23:19:01+00:00,357.7729,0.4,12.89,47.84626,-54.09684
2020-03-10 23:29:01+00:00,365.1196,0.4,12.89,47.84626,-54.09684
2020-03-10 23:39:01+00:00,370.5496,0.42,12.89,47.84626,-54.09684
2020-03-10 23:49:01+00:00,373.7746,0.45,12.89,47.84626,-54.09684
2020-03-10 23:59:01+00:00,378.8696,0.46,12.89,47.84626,-54.09684
